Location: Asheville, NC
(35.6000°N, 82.5500°W)
Time: 15:34:04
(UTC-04:00)

Vanguard 3 - Pass Details

Date: 10 March 2018
Orbit: 508 x 3264 km, 33.3° (Epoch: 25 June)

Event Time Altitude Azimuth Distance (km) Brightness Sun altitude
Rises 14:53:23 0° 281° (W) 5,535 11.8 39.7°
Reaches altitude 10° 14:57:54 10° 276° (W) 4,051 11.3 39.1°
Maximum altitude 15:07:00 44° 209° (SSW) 1,510 10.5 37.7°
Drops below altitude 10° 15:12:21 10° 138° (SE) 2,394 9.6 36.9°
Sets 15:14:24 0° 130° (SE) 3,111 10.1 36.6°
